Torna al catalogo

THORAD DELTA 1 DEB

AttivoLEO
NORAD 14474·DEBRIS·🇺🇸 United States

Lanciato Nov 15, 1974 da Vandenberg Space Force Base

Loading…

Prossimi Passaggi (prossime 24 ore)

TLE

AggiornatoSource: Space-Track

Epoca: Sep 14, 2026, 02:52 UTC

1 14474U 74089EQ  26257.12008174 -.00000500  00000-0 -46213-2 0  9998
2 14474 100.6821 133.0647 0280023 266.3863 253.1951 12.08287702931188

Traccia THORAD DELTA 1 DEB in tempo reale con AllMySat

Download on the App Store